Time,TemperatureF,DewpointF,PressureIn,WindDirection,WindDirectionDegrees,WindSpeedMPH,WindSpeedGustMPH,Humidity,HourlyPrecipIn,Conditions,Clouds,dailyrainin,SolarRadiationWatts/m^2,SoftwareType,DateUTC
2013-01-07 00:00:00,33.7,27.3,30.10,NNE,24,0.0,0.0,77,0.00,,,0.00,0,WeatherTracker,2013-01-07 05:00:00,
2013-01-07 00:02:00,33.7,26.6,30.09,NNW,334,0.0,0.0,75,0.00,,,0.00,0,WeatherTracker,2013-01-07 05:02:00,
2013-01-07 00:07:00,33.8,27.1,30.09,West,264,2.0,0.0,76,0.00,,,0.00,0,WeatherTracker,2013-01-07 05:07:00,
2013-01-07 00:12:00,33.9,26.8,30.09,ESE,109,2.0,0.0,75,0.00,,,0.00,0,WeatherTracker,2013-01-07 05:12:00,
2013-01-07 00:17:00,34.4,27.3,30.09,NW,323,0.0,0.0,75,0.00,,,0.00,0,WeatherTracker,2013-01-07 05:17:00,
2013-01-07 00:22:00,34.5,27.1,30.10,NW,318,0.0,0.0,74,0.00,,,0.00,0,WeatherTracker,2013-01-07 05:22:00,
2013-01-07 00:27:00,34.9,26.8,30.10,NNW,336,0.0,0.0,72,0.00,,,0.00,0,WeatherTracker,2013-01-07 05:27:00,
2013-01-07 00:32:00,35.2,27.1,30.10,WNW,302,3.0,0.0,72,0.00,,,0.00,0,WeatherTracker,2013-01-07 05:32:00,
2013-01-07 00:37:00,35.2,26.8,30.10,NE,48,1.0,0.0,71,0.00,,,0.00,0,WeatherTracker,2013-01-07 05:37:00,
2013-01-07 00:42:00,35.1,27.0,30.09,NE,48,0.0,0.0,72,0.00,,,0.00,0,WeatherTracker,2013-01-07 05:42:00,
2013-01-07 00:47:00,34.8,26.7,30.09,WNW,302,2.0,0.0,72,0.00,,,0.00,0,WeatherTracker,2013-01-07 05:47:00,
2013-01-07 00:52:00,34.4,27.0,30.09,WNW,302,0.0,0.0,74,0.00,,,0.00,0,WeatherTracker,2013-01-07 05:52:00,
2013-01-07 00:57:00,34.0,26.6,30.09,WNW,302,0.0,0.0,74,0.00,,,0.00,0,WeatherTracker,2013-01-07 05:57:00,
2013-01-07 01:02:00,33.5,26.4,30.09,WNW,302,0.0,0.0,75,0.00,,,0.00,0,WeatherTracker,2013-01-07 06:02:00,
2013-01-07 01:07:00,33.3,26.6,30.09,NNE,23,0.0,0.0,76,0.00,,,0.00,0,WeatherTracker,2013-01-07 06:07:00,
2013-01-07 01:13:00,33.2,26.5,30.09,NW,318,5.0,0.0,76,0.00,,,0.00,0,WeatherTracker,2013-01-07 06:13:00,
2013-01-07 01:18:00,33.6,27.2,30.09,NW,318,0.0,0.0,77,0.00,,,0.00,0,WeatherTracker,2013-01-07 06:18:00,
2013-01-07 01:23:00,33.8,27.4,30.10,NW,318,0.0,0.0,77,0.00,,,0.00,0,WeatherTracker,2013-01-07 06:23:00,
2013-01-07 01:28:00,33.7,27.6,30.09,WNW,298,1.0,0.0,78,0.00,,,0.00,0,WeatherTracker,2013-01-07 06:28:00,
2013-01-07 01:33:00,33.5,27.7,30.10,WNW,298,0.0,0.0,79,0.00,,,0.00,0,WeatherTracker,2013-01-07 06:33:00,
2013-01-07 01:38:00,33.3,28.1,30.10,North,355,2.0,0.0,81,0.00,,,0.00,0,WeatherTracker,2013-01-07 06:38:00,
2013-01-07 01:43:00,33.3,28.4,30.10,WNW,300,0.0,0.0,82,0.00,,,0.00,0,WeatherTracker,2013-01-07 06:43:00,
2013-01-07 01:48:00,33.2,28.3,30.10,NW,317,0.0,0.0,82,0.00,,,0.00,0,WeatherTracker,2013-01-07 06:48:00,
2013-01-07 01:53:00,33.1,28.5,30.10,WNW,296,1.0,0.0,83,0.00,,,0.00,0,WeatherTracker,2013-01-07 06:53:00,
2013-01-07 01:58:00,33.1,28.5,30.11,WNW,283,0.0,0.0,83,0.00,,,0.00,0,WeatherTracker,2013-01-07 06:58:00,
2013-01-07 02:03:00,33.0,28.4,30.11,NNW,346,4.0,0.0,83,0.00,,,0.00,0,WeatherTracker,2013-01-07 07:03:00,
2013-01-07 02:08:00,33.0,28.7,30.11,WNW,297,4.0,0.0,84,0.00,,,0.00,0,WeatherTracker,2013-01-07 07:08:00,
2013-01-07 02:13:00,33.0,28.7,30.11,NNW,330,2.0,0.0,84,0.00,,,0.00,0,WeatherTracker,2013-01-07 07:13:00,
2013-01-07 02:18:00,33.0,28.7,30.12,WNW,286,2.0,0.0,84,0.00,,,0.00,0,WeatherTracker,2013-01-07 07:18:00,
2013-01-07 02:23:00,33.0,28.4,30.12,NE,50,2.0,0.0,83,0.00,,,0.00,0,WeatherTracker,2013-01-07 07:23:00,
2013-01-07 02:28:00,32.9,28.3,30.12,NNE,25,0.0,0.0,83,0.00,,,0.00,0,WeatherTracker,2013-01-07 07:28:00,
2013-01-07 02:33:00,32.9,28.3,30.12,North,355,6.0,0.0,83,0.00,,,0.00,0,WeatherTracker,2013-01-07 07:33:00,
2013-01-07 02:38:00,32.9,28.3,30.12,NW,309,3.0,0.0,83,0.00,,,0.00,0,WeatherTracker,2013-01-07 07:38:00,
2013-01-07 02:43:00,32.8,27.9,30.13,NNW,333,3.0,0.0,82,0.00,,,0.00,0,WeatherTracker,2013-01-07 07:43:00,
2013-01-07 02:48:00,32.7,27.8,30.12,NNE,27,1.0,0.0,82,0.00,,,0.00,0,WeatherTracker,2013-01-07 07:48:00,
2013-01-07 02:53:00,32.6,27.7,30.12,NE,35,6.0,0.0,82,0.00,,,0.00,0,WeatherTracker,2013-01-07 07:53:00,
2013-01-07 02:58:00,32.5,27.6,30.12,NNW,334,4.0,0.0,82,0.00,,,0.00,0,WeatherTracker,2013-01-07 07:58:00,
2013-01-07 03:03:00,32.4,27.5,30.13,NE,37,7.0,0.0,82,0.00,,,0.00,0,WeatherTracker,2013-01-07 08:03:00,
2013-01-07 03:08:00,32.3,27.4,30.13,NE,34,0.0,0.0,82,0.00,,,0.00,0,WeatherTracker,2013-01-07 08:08:00,
2013-01-07 03:14:00,32.2,27.3,30.13,West,275,5.0,0.0,82,0.00,,,0.00,0,WeatherTracker,2013-01-07 08:14:00,
2013-01-07 03:19:00,32.1,27.2,30.13,WNW,296,3.0,0.0,82,0.00,,,0.00,0,WeatherTracker,2013-01-07 08:19:00,
2013-01-07 03:24:00,32.0,27.1,30.13,West,279,0.0,0.0,82,0.00,,,0.00,0,WeatherTracker,2013-01-07 08:24:00,
2013-01-07 03:29:00,31.9,27.0,30.14,NE,47,0.0,0.0,82,0.00,,,0.00,0,WeatherTracker,2013-01-07 08:29:00,
2013-01-07 03:34:00,31.8,26.9,30.14,North,11,7.0,0.0,82,0.00,,,0.00,0,WeatherTracker,2013-01-07 08:34:00,
2013-01-07 03:39:00,31.7,26.8,30.13,ENE,60,3.0,0.0,82,0.00,,,0.00,0,WeatherTracker,2013-01-07 08:39:00,
2013-01-07 03:44:00,31.6,26.7,30.14,SSE,163,3.0,0.0,82,0.00,,,0.00,0,WeatherTracker,2013-01-07 08:44:00,
2013-01-07 03:49:00,31.5,26.7,30.14,NE,55,1.0,0.0,82,0.00,,,0.00,0,WeatherTracker,2013-01-07 08:49:00,
2013-01-07 03:54:00,31.4,26.6,30.14,East,79,0.0,0.0,82,0.00,,,0.00,0,WeatherTracker,2013-01-07 08:54:00,
2013-01-07 03:59:00,31.3,26.5,30.14,NW,310,2.0,0.0,82,0.00,,,0.00,0,WeatherTracker,2013-01-07 08:59:00,
2013-01-07 04:04:00,31.2,26.4,30.14,NW,312,3.0,0.0,82,0.00,,,0.00,0,WeatherTracker,2013-01-07 09:04:00,
2013-01-07 04:09:00,31.1,26.3,30.14,WNW,288,4.0,0.0,82,0.00,,,0.00,0,WeatherTracker,2013-01-07 09:09:00,
2013-01-07 04:14:00,31.1,26.3,30.14,NE,37,3.0,0.0,82,0.00,,,0.00,0,WeatherTracker,2013-01-07 09:14:00,
2013-01-07 04:19:00,31.0,26.2,30.14,East,85,0.0,0.0,82,0.00,,,0.00,0,WeatherTracker,2013-01-07 09:19:00,
2013-01-07 04:24:00,30.8,26.0,30.14,ENE,65,0.0,0.0,82,0.00,,,0.00,0,WeatherTracker,2013-01-07 09:24:00,
2013-01-07 04:29:00,30.7,25.9,30.15,NE,51,3.0,0.0,82,0.00,,,0.00,0,WeatherTracker,2013-01-07 09:29:00,
2013-01-07 04:34:00,30.7,25.9,30.15,ENE,65,1.0,0.0,82,0.00,,,0.00,0,WeatherTracker,2013-01-07 09:34:00,
2013-01-07 04:39:00,30.5,26.0,30.15,ENE,66,0.0,0.0,83,0.00,,,0.00,0,WeatherTracker,2013-01-07 09:39:00,
2013-01-07 04:44:00,30.1,25.6,30.16,ENE,66,0.0,0.0,83,0.00,,,0.00,0,WeatherTracker,2013-01-07 09:44:00,
2013-01-07 04:49:00,29.6,25.1,30.15,NW,322,2.0,0.0,83,0.00,,,0.00,0,WeatherTracker,2013-01-07 09:49:00,
2013-01-07 04:54:00,29.5,25.3,30.15,NNW,338,2.0,0.0,84,0.00,,,0.00,0,WeatherTracker,2013-01-07 09:54:00,
2013-01-07 04:59:00,29.7,25.5,30.15,ESE,111,3.0,0.0,84,0.00,,,0.00,0,WeatherTracker,2013-01-07 09:59:00,
2013-01-07 05:04:00,29.7,25.5,30.15,ESE,111,0.0,0.0,84,0.00,,,0.00,0,WeatherTracker,2013-01-07 10:04:00,
2013-01-07 05:09:00,29.5,25.3,30.16,ESE,118,0.0,0.0,84,0.00,,,0.00,0,WeatherTracker,2013-01-07 10:09:00,
2013-01-07 05:14:00,29.2,25.0,30.16,ESE,118,0.0,0.0,84,0.00,,,0.00,0,WeatherTracker,2013-01-07 10:14:00,
2013-01-07 05:19:00,28.8,24.9,30.16,ESE,118,0.0,0.0,85,0.00,,,0.00,0,WeatherTracker,2013-01-07 10:19:00,
2013-01-07 05:24:00,28.6,24.7,30.16,ESE,118,0.0,0.0,85,0.00,,,0.00,0,WeatherTracker,2013-01-07 10:24:00,
2013-01-07 05:29:00,28.4,24.5,30.16,ESE,118,0.0,0.0,85,0.00,,,0.00,0,WeatherTracker,2013-01-07 10:29:00,
2013-01-07 05:34:00,28.2,24.6,30.16,ESE,118,0.0,0.0,86,0.00,,,0.00,0,WeatherTracker,2013-01-07 10:34:00,
2013-01-07 05:40:00,28.0,24.4,30.16,ESE,118,0.0,0.0,86,0.00,,,0.00,0,WeatherTracker,2013-01-07 10:40:00,
2013-01-07 05:45:00,27.8,24.2,30.16,ESE,118,0.0,0.0,86,0.00,,,0.00,0,WeatherTracker,2013-01-07 10:45:00,
2013-01-07 05:50:00,27.8,24.2,30.16,ESE,118,0.0,0.0,86,0.00,,,0.00,0,WeatherTracker,2013-01-07 10:50:00,
2013-01-07 05:55:00,27.8,24.4,30.17,ESE,118,0.0,0.0,87,0.00,,,0.00,0,WeatherTracker,2013-01-07 10:55:00,
2013-01-07 06:00:00,27.7,24.1,30.17,ESE,118,0.0,0.0,86,0.00,,,0.00,0,WeatherTracker,2013-01-07 11:00:00,
2013-01-07 06:05:00,27.7,24.3,30.17,ESE,118,0.0,0.0,87,0.00,,,0.00,0,WeatherTracker,2013-01-07 11:05:00,
2013-01-07 06:10:00,27.7,24.1,30.18,ESE,118,0.0,0.0,86,0.00,,,0.00,0,WeatherTracker,2013-01-07 11:10:00,
2013-01-07 06:15:00,27.4,24.1,30.18,ESE,118,0.0,0.0,87,0.00,,,0.00,0,WeatherTracker,2013-01-07 11:15:00,
2013-01-07 06:20:00,27.3,24.0,30.18,ESE,118,0.0,0.0,87,0.00,,,0.00,0,WeatherTracker,2013-01-07 11:20:00,
2013-01-07 06:25:00,27.2,23.9,30.18,ESE,118,0.0,0.0,87,0.00,,,0.00,0,WeatherTracker,2013-01-07 11:25:00,
2013-01-07 06:30:00,27.1,23.8,30.19,ESE,118,0.0,0.0,87,0.00,,,0.00,0,WeatherTracker,2013-01-07 11:30:00,
2013-01-07 06:35:00,27.1,23.8,30.19,ESE,118,0.0,0.0,87,0.00,,,0.00,0,WeatherTracker,2013-01-07 11:35:00,
2013-01-07 06:40:00,27.0,23.7,30.19,ESE,118,0.0,0.0,87,0.00,,,0.00,0,WeatherTracker,2013-01-07 11:40:00,
2013-01-07 06:45:00,27.0,23.7,30.19,ESE,118,0.0,0.0,87,0.00,,,0.00,0,WeatherTracker,2013-01-07 11:45:00,
2013-01-07 06:50:00,26.9,23.8,30.19,ESE,118,0.0,0.0,88,0.00,,,0.00,0,WeatherTracker,2013-01-07 11:50:00,
2013-01-07 06:56:00,26.8,23.5,30.19,ESE,118,1.0,0.0,87,0.00,,,0.00,0,WeatherTracker,2013-01-07 11:56:00,
2013-01-07 07:01:00,26.8,23.5,30.19,ESE,118,1.0,0.0,87,0.00,,,0.00,0,WeatherTracker,2013-01-07 12:01:00,
2013-01-07 07:06:00,26.8,23.7,30.20,ESE,118,0.0,0.0,88,0.00,,,0.00,0,WeatherTracker,2013-01-07 12:06:00,
2013-01-07 07:11:00,26.8,23.5,30.20,ESE,118,0.0,0.0,87,0.00,,,0.00,0,WeatherTracker,2013-01-07 12:11:00,
2013-01-07 07:16:00,26.7,23.4,30.20,ESE,118,0.0,0.0,87,0.00,,,0.00,0,WeatherTracker,2013-01-07 12:16:00,
2013-01-07 07:21:00,26.7,23.4,30.21,ESE,118,0.0,0.0,87,0.00,,,0.00,0,WeatherTracker,2013-01-07 12:21:00,
2013-01-07 07:26:00,26.7,23.4,30.21,ESE,118,0.0,0.0,87,0.00,,,0.00,0,WeatherTracker,2013-01-07 12:26:00,
2013-01-07 07:31:00,26.7,23.4,30.21,ESE,118,0.0,0.0,87,0.00,,,0.00,0,WeatherTracker,2013-01-07 12:31:00,
2013-01-07 07:36:00,26.8,23.5,30.21,ESE,118,0.0,0.0,87,0.00,,,0.00,0,WeatherTracker,2013-01-07 12:36:00,
2013-01-07 07:41:00,26.8,23.5,30.21,ESE,118,0.0,0.0,87,0.00,,,0.00,0,WeatherTracker,2013-01-07 12:41:00,
2013-01-07 07:46:00,26.7,23.4,30.21,ESE,118,0.0,0.0,87,0.00,,,0.00,5,WeatherTracker,2013-01-07 12:46:00,
2013-01-07 07:51:00,26.5,23.2,30.21,ESE,118,0.0,0.0,87,0.00,,,0.00,5,WeatherTracker,2013-01-07 12:51:00,
2013-01-07 07:56:00,26.4,23.1,30.22,ESE,118,0.0,0.0,87,0.00,,,0.00,7,WeatherTracker,2013-01-07 12:56:00,
2013-01-07 08:01:00,26.4,23.1,30.22,ESE,118,0.0,0.0,87,0.00,,,0.00,9,WeatherTracker,2013-01-07 13:01:00,
2013-01-07 08:06:00,26.3,23.0,30.22,ESE,118,0.0,0.0,87,0.00,,,0.00,11,WeatherTracker,2013-01-07 13:06:00,
2013-01-07 08:11:00,26.3,23.2,30.23,ESE,118,0.0,0.0,88,0.00,,,0.00,11,WeatherTracker,2013-01-07 13:11:00,
2013-01-07 08:16:00,26.5,23.4,30.23,ESE,118,0.0,0.0,88,0.00,,,0.00,19,WeatherTracker,2013-01-07 13:16:00,
2013-01-07 08:21:00,26.6,23.5,30.23,ESE,118,0.0,0.0,88,0.00,,,0.00,28,WeatherTracker,2013-01-07 13:21:00,
2013-01-07 08:26:00,26.8,23.7,30.23,ESE,118,0.0,0.0,88,0.00,,,0.00,23,WeatherTracker,2013-01-07 13:26:00,
2013-01-07 08:31:00,27.1,24.0,30.24,ESE,118,0.0,0.0,88,0.00,,,0.00,46,WeatherTracker,2013-01-07 13:31:00,
2013-01-07 08:36:00,27.6,24.2,30.24,ESE,118,0.0,0.0,87,0.00,,,0.00,42,WeatherTracker,2013-01-07 13:36:00,
2013-01-07 08:41:00,28.2,24.6,30.25,ESE,117,1.0,0.0,86,0.00,,,0.00,49,WeatherTracker,2013-01-07 13:41:00,
2013-01-07 08:47:00,28.9,25.0,30.25,ESE,113,0.0,0.0,85,0.00,,,0.00,54,WeatherTracker,2013-01-07 13:47:00,
2013-01-07 08:52:00,29.6,24.8,30.25,ESE,106,0.0,0.0,82,0.00,,,0.00,33,WeatherTracker,2013-01-07 13:52:00,
2013-01-07 08:57:00,30.2,25.4,30.25,ESE,107,0.0,0.0,82,0.00,,,0.00,81,WeatherTracker,2013-01-07 13:57:00,
2013-01-07 09:02:00,30.6,25.5,30.25,SSE,152,0.0,0.0,81,0.00,,,0.00,97,WeatherTracker,2013-01-07 14:02:00,
2013-01-07 09:07:00,31.0,25.3,30.26,NE,55,1.0,0.0,79,0.00,,,0.00,111,WeatherTracker,2013-01-07 14:07:00,
2013-01-07 09:12:00,31.4,25.3,30.26,NE,34,0.0,0.0,78,0.00,,,0.00,95,WeatherTracker,2013-01-07 14:12:00,
2013-01-07 09:17:00,31.9,25.5,30.26,ENE,74,0.0,0.0,77,0.00,,,0.00,74,WeatherTracker,2013-01-07 14:17:00,
2013-01-07 09:22:00,32.1,25.7,30.26,East,85,0.0,0.0,77,0.00,,,0.00,47,WeatherTracker,2013-01-07 14:22:00,
2013-01-07 09:27:00,32.3,25.6,30.26,ENE,68,0.0,0.0,76,0.00,,,0.00,40,WeatherTracker,2013-01-07 14:27:00,
2013-01-07 09:32:00,32.5,25.5,30.27,NNE,33,1.0,0.0,75,0.00,,,0.00,70,WeatherTracker,2013-01-07 14:32:00,
2013-01-07 09:37:00,32.8,25.8,30.27,East,99,0.0,0.0,75,0.00,,,0.00,77,WeatherTracker,2013-01-07 14:37:00,
2013-01-07 09:42:00,33.0,25.6,30.27,NNE,22,2.0,0.0,74,0.00,,,0.00,53,WeatherTracker,2013-01-07 14:42:00,
2013-01-07 09:47:00,33.2,25.5,30.27,NNW,334,0.0,0.0,73,0.00,,,0.00,105,WeatherTracker,2013-01-07 14:47:00,
2013-01-07 09:52:00,33.4,25.7,30.27,NW,310,1.0,0.0,73,0.00,,,0.00,202,WeatherTracker,2013-01-07 14:52:00,
2013-01-07 09:57:00,33.6,25.9,30.27,SSE,147,2.0,0.0,73,0.00,,,0.00,192,WeatherTracker,2013-01-07 14:57:00,
2013-01-07 10:02:00,33.9,25.8,30.28,NNE,13,0.0,0.0,72,0.00,,,0.00,125,WeatherTracker,2013-01-07 15:02:00,
2013-01-07 10:07:00,34.3,25.9,30.28,North,360,3.0,0.0,71,0.00,,,0.00,211,WeatherTracker,2013-01-07 15:07:00,
2013-01-07 10:12:00,34.4,26.3,30.28,SE,130,3.0,0.0,72,0.00,,,0.00,167,WeatherTracker,2013-01-07 15:12:00,
2013-01-07 10:17:00,34.7,25.9,30.28,NW,325,0.0,0.0,70,0.00,,,0.00,162,WeatherTracker,2013-01-07 15:17:00,
2013-01-07 10:22:00,35.0,25.9,30.28,ENE,63,0.0,0.0,69,0.00,,,0.00,223,WeatherTracker,2013-01-07 15:22:00,
2013-01-07 10:27:00,35.2,26.1,30.28,NNE,26,0.0,0.0,69,0.00,,,0.00,195,WeatherTracker,2013-01-07 15:27:00,
2013-01-07 10:33:00,35.6,26.4,30.29,ENE,67,2.0,0.0,69,0.00,,,0.00,234,WeatherTracker,2013-01-07 15:33:00,
2013-01-07 10:38:00,35.9,26.0,30.28,NNE,25,3.0,0.0,67,0.00,,,0.00,297,WeatherTracker,2013-01-07 15:38:00,
2013-01-07 10:43:00,36.1,25.9,30.29,ENE,61,2.0,0.0,66,0.00,,,0.00,232,WeatherTracker,2013-01-07 15:43:00,
2013-01-07 10:48:00,36.4,26.9,30.29,NNW,346,2.0,0.0,68,0.00,,,0.00,283,WeatherTracker,2013-01-07 15:48:00,
2013-01-07 10:53:00,36.8,26.9,30.29,NNW,346,1.0,0.0,67,0.00,,,0.00,304,WeatherTracker,2013-01-07 15:53:00,
2013-01-07 10:58:00,37.1,27.2,30.29,NNW,346,0.0,0.0,67,0.00,,,0.00,301,WeatherTracker,2013-01-07 15:58:00,
2013-01-07 11:03:00,37.9,27.2,30.29,North,355,0.0,0.0,65,0.00,,,0.00,338,WeatherTracker,2013-01-07 16:03:00,
2013-01-07 11:08:00,38.6,27.1,30.28,North,355,0.0,0.0,63,0.00,,,0.00,415,WeatherTracker,2013-01-07 16:08:00,
2013-01-07 11:13:00,39.3,27.4,30.28,ENE,67,0.0,0.0,62,0.00,,,0.00,315,WeatherTracker,2013-01-07 16:13:00,
2013-01-07 11:18:00,40.0,27.3,30.28,ENE,67,2.0,0.0,60,0.00,,,0.00,200,WeatherTracker,2013-01-07 16:18:00,
2013-01-07 11:23:00,40.6,27.4,30.28,NNW,344,1.0,0.0,59,0.00,,,0.00,531,WeatherTracker,2013-01-07 16:23:00,
2013-01-07 11:28:00,41.0,26.9,30.28,ENE,68,2.0,0.0,57,0.00,,,0.00,503,WeatherTracker,2013-01-07 16:28:00,
2013-01-07 11:33:00,41.3,27.2,30.27,ENE,61,0.0,0.0,57,0.00,,,0.00,443,WeatherTracker,2013-01-07 16:33:00,
2013-01-07 11:38:00,41.5,26.6,30.27,NW,321,0.0,0.0,55,0.00,,,0.00,357,WeatherTracker,2013-01-07 16:38:00,
2013-01-07 11:43:00,41.8,26.8,30.27,ESE,109,1.0,0.0,55,0.00,,,0.00,339,WeatherTracker,2013-01-07 16:43:00,
2013-01-07 11:48:00,42.1,26.2,30.27,NE,53,1.0,0.0,53,0.00,,,0.00,411,WeatherTracker,2013-01-07 16:48:00,
2013-01-07 11:53:00,42.4,26.9,30.26,NNE,28,2.0,0.0,54,0.00,,,0.00,313,WeatherTracker,2013-01-07 16:53:00,
2013-01-07 11:59:00,42.9,27.9,30.26,NNE,25,1.0,0.0,55,0.00,,,0.00,492,WeatherTracker,2013-01-07 16:59:00,
2013-01-07 12:04:00,43.5,28.4,30.26,SW,222,2.0,0.0,55,0.00,,,0.00,250,WeatherTracker,2013-01-07 17:04:00,
2013-01-07 12:09:00,43.9,28.8,30.26,NW,309,3.0,0.0,55,0.00,,,0.00,408,WeatherTracker,2013-01-07 17:09:00,
2013-01-07 12:14:00,43.8,27.8,30.26,NW,304,3.0,0.0,53,0.00,,,0.00,357,WeatherTracker,2013-01-07 17:14:00,
2013-01-07 12:19:00,43.8,27.8,30.26,NNW,336,2.0,0.0,53,0.00,,,0.00,397,WeatherTracker,2013-01-07 17:19:00,
2013-01-07 12:24:00,44.0,27.5,30.26,NNW,339,0.0,0.0,52,0.00,,,0.00,290,WeatherTracker,2013-01-07 17:24:00,
2013-01-07 12:29:00,44.4,27.4,30.25,SSE,168,1.0,0.0,51,0.00,,,0.00,325,WeatherTracker,2013-01-07 17:29:00,
2013-01-07 12:34:00,44.9,27.9,30.25,West,279,0.0,0.0,51,0.00,,,0.00,485,WeatherTracker,2013-01-07 17:34:00,
2013-01-07 12:39:00,45.4,27.9,30.25,North,360,0.0,0.0,50,0.00,,,0.00,399,WeatherTracker,2013-01-07 17:39:00,
2013-01-07 12:44:00,45.8,28.7,30.24,North,360,2.0,0.0,51,0.00,,,0.00,230,WeatherTracker,2013-01-07 17:44:00,
2013-01-07 12:49:00,46.1,28.0,30.24,NW,314,0.0,0.0,49,0.00,,,0.00,301,WeatherTracker,2013-01-07 17:49:00,
2013-01-07 12:54:00,46.2,27.6,30.24,SSW,210,0.0,0.0,48,0.00,,,0.00,72,WeatherTracker,2013-01-07 17:54:00,
2013-01-07 12:59:00,46.2,27.6,30.23,SW,223,0.0,0.0,48,0.00,,,0.00,229,WeatherTracker,2013-01-07 17:59:00,
2013-01-07 13:04:00,46.5,27.9,30.23,WSW,241,0.0,0.0,48,0.00,,,0.00,534,WeatherTracker,2013-01-07 18:04:00,
2013-01-07 13:09:00,46.9,27.7,30.23,WSW,257,0.0,0.0,47,0.00,,,0.00,454,WeatherTracker,2013-01-07 18:09:00,
2013-01-07 13:14:00,47.1,26.9,30.22,WNW,284,0.0,0.0,45,0.00,,,0.00,309,WeatherTracker,2013-01-07 18:14:00,
2013-01-07 13:19:00,47.3,27.0,30.22,SSE,167,0.0,0.0,45,0.00,,,0.00,410,WeatherTracker,2013-01-07 18:19:00,
2013-01-07 13:24:00,47.5,27.2,30.22,NE,42,1.0,0.0,45,0.00,,,0.00,279,WeatherTracker,2013-01-07 18:24:00,
2013-01-07 13:29:00,47.8,27.5,30.21,NNE,15,0.0,0.0,45,0.00,,,0.00,445,WeatherTracker,2013-01-07 18:29:00,
2013-01-07 13:34:00,47.9,26.5,30.22,NNW,337,2.0,0.0,43,0.00,,,0.00,338,WeatherTracker,2013-01-07 18:34:00,
2013-01-07 13:39:00,48.0,26.0,30.21,NE,51,0.0,0.0,42,0.00,,,0.00,190,WeatherTracker,2013-01-07 18:39:00,
2013-01-07 13:44:00,48.0,26.6,30.21,North,360,2.0,0.0,43,0.00,,,0.00,39,WeatherTracker,2013-01-07 18:44:00,
2013-01-07 13:49:00,48.2,26.2,30.21,East,87,2.0,0.0,42,0.00,,,0.00,357,WeatherTracker,2013-01-07 18:49:00,
2013-01-07 13:55:00,48.2,25.6,30.21,NNW,331,2.0,0.0,41,0.00,,,0.00,443,WeatherTracker,2013-01-07 18:55:00,
2013-01-07 14:00:00,48.3,25.7,30.20,ENE,75,1.0,0.0,41,0.00,,,0.00,102,WeatherTracker,2013-01-07 19:00:00,
2013-01-07 14:05:00,48.3,25.7,30.20,NW,321,0.0,0.0,41,0.00,,,0.00,148,WeatherTracker,2013-01-07 19:05:00,
2013-01-07 14:10:00,48.4,25.8,30.20,NNE,28,0.0,0.0,41,0.00,,,0.00,37,WeatherTracker,2013-01-07 19:10:00,
2013-01-07 14:15:00,48.5,25.3,30.20,NNW,343,0.0,0.0,40,0.00,,,0.00,445,WeatherTracker,2013-01-07 19:15:00,
2013-01-07 14:20:00,48.8,25.6,30.20,North,5,1.0,0.0,40,0.00,,,0.00,192,WeatherTracker,2013-01-07 19:20:00,
2013-01-07 14:25:00,48.7,26.6,30.20,NNW,331,0.0,0.0,42,0.00,,,0.00,185,WeatherTracker,2013-01-07 19:25:00,
2013-01-07 14:30:00,48.7,25.5,30.20,NNW,332,0.0,0.0,40,0.00,,,0.00,178,WeatherTracker,2013-01-07 19:30:00,
2013-01-07 14:35:00,48.8,25.6,30.20,NNW,331,0.0,0.0,40,0.00,,,0.00,83,WeatherTracker,2013-01-07 19:35:00,
2013-01-07 14:40:00,48.9,25.7,30.20,East,84,0.0,0.0,40,0.00,,,0.00,90,WeatherTracker,2013-01-07 19:40:00,
2013-01-07 14:45:00,49.0,25.7,30.20,North,350,0.0,0.0,40,0.00,,,0.00,81,WeatherTracker,2013-01-07 19:45:00,
2013-01-07 14:50:00,48.9,25.7,30.21,NNE,19,0.0,0.0,40,0.00,,,0.00,109,WeatherTracker,2013-01-07 19:50:00,
2013-01-07 14:55:00,49.0,25.7,30.20,SE,141,0.0,0.0,40,0.00,,,0.00,53,WeatherTracker,2013-01-07 19:55:00,
2013-01-07 15:00:00,48.9,26.2,30.21,ESE,106,2.0,0.0,41,0.00,,,0.00,97,WeatherTracker,2013-01-07 20:00:00,
2013-01-07 15:05:00,48.8,25.6,30.21,ESE,107,0.0,0.0,40,0.00,,,0.00,30,WeatherTracker,2013-01-07 20:05:00,
2013-01-07 15:10:00,48.7,27.2,30.21,ESE,106,0.0,0.0,43,0.00,,,0.00,28,WeatherTracker,2013-01-07 20:10:00,
2013-01-07 15:15:00,48.5,27.0,30.21,ESE,106,0.0,0.0,43,0.00,,,0.00,28,WeatherTracker,2013-01-07 20:15:00,
2013-01-07 15:19:00,48.5,27.0,30.21,ESE,107,0.0,0.0,43,0.00,,,0.00,28,WeatherTracker,2013-01-07 20:19:00,
2013-01-07 15:24:00,48.3,26.3,30.22,ESE,107,0.0,0.0,42,0.00,,,0.00,26,WeatherTracker,2013-01-07 20:24:00,
2013-01-07 15:29:00,48.2,28.4,30.22,SSE,148,2.0,0.0,46,0.00,,,0.00,26,WeatherTracker,2013-01-07 20:29:00,
2013-01-07 15:34:00,48.0,27.1,30.22,SSW,208,0.0,0.0,44,0.00,,,0.00,25,WeatherTracker,2013-01-07 20:34:00,
2013-01-07 15:39:00,47.9,27.6,30.22,SE,145,0.0,0.0,45,0.00,,,0.00,25,WeatherTracker,2013-01-07 20:39:00,
2013-01-07 15:44:00,47.8,26.4,30.22,South,174,0.0,0.0,43,0.00,,,0.00,25,WeatherTracker,2013-01-07 20:44:00,
2013-01-07 15:49:00,47.6,26.8,30.22,SSE,165,0.0,0.0,44,0.00,,,0.00,23,WeatherTracker,2013-01-07 20:49:00,
2013-01-07 15:54:00,47.4,28.7,30.23,SSE,165,0.0,0.0,48,0.00,,,0.00,23,WeatherTracker,2013-01-07 20:54:00,
2013-01-07 15:59:00,47.0,27.8,30.23,SSE,165,0.0,0.0,47,0.00,,,0.00,21,WeatherTracker,2013-01-07 20:59:00,
2013-01-07 16:04:00,46.7,27.6,30.23,SSE,161,0.0,0.0,47,0.00,,,0.00,21,WeatherTracker,2013-01-07 21:04:00,
2013-01-07 16:09:00,46.4,27.3,30.23,SSE,161,0.0,0.0,47,0.00,,,0.00,19,WeatherTracker,2013-01-07 21:09:00,
2013-01-07 16:14:00,46.1,27.5,30.23,SSE,161,0.0,0.0,48,0.00,,,0.00,19,WeatherTracker,2013-01-07 21:14:00,
2013-01-07 16:19:00,45.8,27.2,30.23,SSE,162,0.0,0.0,48,0.00,,,0.00,18,WeatherTracker,2013-01-07 21:19:00,
2013-01-07 16:24:00,45.5,27.5,30.23,SSE,162,0.0,0.0,49,0.00,,,0.00,18,WeatherTracker,2013-01-07 21:24:00,
2013-01-07 16:29:00,45.1,26.6,30.23,South,188,0.0,0.0,48,0.00,,,0.00,16,WeatherTracker,2013-01-07 21:29:00,
2013-01-07 16:35:00,45.0,26.5,30.23,South,188,0.0,0.0,48,0.00,,,0.00,14,WeatherTracker,2013-01-07 21:35:00,
2013-01-07 16:40:00,44.7,26.7,30.23,South,188,0.0,0.0,49,0.00,,,0.00,14,WeatherTracker,2013-01-07 21:40:00,
2013-01-07 16:45:00,44.5,26.0,30.23,South,188,0.0,0.0,48,0.00,,,0.00,12,WeatherTracker,2013-01-07 21:45:00,
2013-01-07 16:50:00,44.3,25.9,30.24,South,188,0.0,0.0,48,0.00,,,0.00,12,WeatherTracker,2013-01-07 21:50:00,
2013-01-07 16:55:00,44.0,26.1,30.24,South,188,0.0,0.0,49,0.00,,,0.00,11,WeatherTracker,2013-01-07 21:55:00,
2013-01-07 17:00:00,43.7,26.3,30.24,South,187,0.0,0.0,50,0.00,,,0.00,11,WeatherTracker,2013-01-07 22:00:00,
2013-01-07 17:05:00,43.4,26.0,30.24,South,187,0.0,0.0,50,0.00,,,0.00,11,WeatherTracker,2013-01-07 22:05:00,
2013-01-07 17:10:00,43.2,26.3,30.24,South,188,0.0,0.0,51,0.00,,,0.00,9,WeatherTracker,2013-01-07 22:10:00,
2013-01-07 17:15:00,42.9,26.5,30.25,South,188,0.0,0.0,52,0.00,,,0.00,7,WeatherTracker,2013-01-07 22:15:00,
2013-01-07 17:20:00,42.6,26.2,30.25,South,188,0.0,0.0,52,0.00,,,0.00,7,WeatherTracker,2013-01-07 22:20:00,
2013-01-07 17:25:00,42.3,25.9,30.25,South,188,0.0,0.0,52,0.00,,,0.00,5,WeatherTracker,2013-01-07 22:25:00,
2013-01-07 17:30:00,42.0,26.1,30.25,South,188,0.0,0.0,53,0.00,,,0.00,5,WeatherTracker,2013-01-07 22:30:00,
2013-01-07 17:35:00,41.8,26.4,30.25,South,188,0.0,0.0,54,0.00,,,0.00,0,WeatherTracker,2013-01-07 22:35:00,
2013-01-07 17:40:00,41.5,25.7,30.25,South,188,0.0,0.0,53,0.00,,,0.00,5,WeatherTracker,2013-01-07 22:40:00,
2013-01-07 17:45:00,41.2,25.8,30.25,South,188,0.0,0.0,54,0.00,,,0.00,0,WeatherTracker,2013-01-07 22:45:00,
2013-01-07 17:50:00,40.9,26.0,30.25,South,188,0.0,0.0,55,0.00,,,0.00,0,WeatherTracker,2013-01-07 22:50:00,
2013-01-07 17:55:00,40.5,25.6,30.25,South,188,0.0,0.0,55,0.00,,,0.00,0,WeatherTracker,2013-01-07 22:55:00,
2013-01-07 18:00:00,40.4,26.4,30.25,South,188,0.0,0.0,57,0.00,,,0.00,0,WeatherTracker,2013-01-07 23:00:00,
2013-01-07 18:06:00,40.1,25.7,30.26,South,188,0.0,0.0,56,0.00,,,0.00,0,WeatherTracker,2013-01-07 23:06:00,
2013-01-07 18:11:00,39.8,25.8,30.26,South,188,0.0,0.0,57,0.00,,,0.00,0,WeatherTracker,2013-01-07 23:11:00,
2013-01-07 18:16:00,39.4,25.9,30.26,South,188,0.0,0.0,58,0.00,,,0.00,0,WeatherTracker,2013-01-07 23:16:00,
2013-01-07 18:21:00,39.0,25.5,30.26,South,188,0.0,0.0,58,0.00,,,0.00,0,WeatherTracker,2013-01-07 23:21:00,
2013-01-07 18:26:00,38.6,25.9,30.26,South,188,0.0,0.0,60,0.00,,,0.00,0,WeatherTracker,2013-01-07 23:26:00,
2013-01-07 18:31:00,38.1,25.5,30.26,South,188,0.0,0.0,60,0.00,,,0.00,0,WeatherTracker,2013-01-07 23:31:00,
2013-01-07 18:36:00,37.7,25.9,30.26,South,190,0.0,0.0,62,0.00,,,0.00,0,WeatherTracker,2013-01-07 23:36:00,
2013-01-07 18:41:00,37.3,25.9,30.27,South,190,0.0,0.0,63,0.00,,,0.00,0,WeatherTracker,2013-01-07 23:41:00,
2013-01-07 18:46:00,36.9,26.2,30.27,South,190,0.0,0.0,65,0.00,,,0.00,0,WeatherTracker,2013-01-07 23:46:00,
2013-01-07 18:51:00,36.5,25.9,30.27,South,190,0.0,0.0,65,0.00,,,0.00,0,WeatherTracker,2013-01-07 23:51:00,
2013-01-07 18:56:00,36.2,26.0,30.27,South,190,0.0,0.0,66,0.00,,,0.00,0,WeatherTracker,2013-01-07 23:56:00,
2013-01-07 19:01:00,35.9,25.7,30.26,South,190,0.0,0.0,66,0.00,,,0.00,0,WeatherTracker,2013-01-08 00:01:00,
2013-01-07 19:06:00,35.5,26.0,30.26,South,190,0.0,0.0,68,0.00,,,0.00,0,WeatherTracker,2013-01-08 00:06:00,
2013-01-07 19:11:00,35.0,25.2,30.26,South,190,0.0,0.0,67,0.00,,,0.00,0,WeatherTracker,2013-01-08 00:11:00,
2013-01-07 19:16:00,34.6,25.1,30.26,South,190,0.0,0.0,68,0.00,,,0.00,0,WeatherTracker,2013-01-08 00:16:00,
2013-01-07 19:22:00,34.4,25.3,30.27,South,190,0.0,0.0,69,0.00,,,0.00,0,WeatherTracker,2013-01-08 00:22:00,
2013-01-07 19:27:00,34.2,25.5,30.27,South,190,0.0,0.0,70,0.00,,,0.00,0,WeatherTracker,2013-01-08 00:27:00,
2013-01-07 19:32:00,33.9,25.2,30.27,South,190,0.0,0.0,70,0.00,,,0.00,0,WeatherTracker,2013-01-08 00:32:00,
2013-01-07 19:37:00,33.7,25.0,30.27,South,190,0.0,0.0,70,0.00,,,0.00,0,WeatherTracker,2013-01-08 00:37:00,
2013-01-07 19:42:00,33.4,24.7,30.26,South,190,0.0,0.0,70,0.00,,,0.00,0,WeatherTracker,2013-01-08 00:42:00,
2013-01-07 19:47:00,33.2,25.2,30.26,South,190,0.0,0.0,72,0.00,,,0.00,0,WeatherTracker,2013-01-08 00:47:00,
2013-01-07 19:52:00,32.8,25.1,30.26,South,190,0.0,0.0,73,0.00,,,0.00,0,WeatherTracker,2013-01-08 00:52:00,
2013-01-07 19:57:00,32.6,24.9,30.26,South,190,0.0,0.0,73,0.00,,,0.00,0,WeatherTracker,2013-01-08 00:57:00,
2013-01-07 20:02:00,32.3,24.6,30.26,South,190,0.0,0.0,73,0.00,,,0.00,0,WeatherTracker,2013-01-08 01:02:00,
2013-01-07 20:07:00,32.1,24.4,30.26,South,190,0.0,0.0,73,0.00,,,0.00,0,WeatherTracker,2013-01-08 01:07:00,
2013-01-07 20:12:00,32.0,24.7,30.26,South,190,0.0,0.0,74,0.00,,,0.00,0,WeatherTracker,2013-01-08 01:12:00,
2013-01-07 20:17:00,31.9,24.9,30.26,South,190,0.0,0.0,75,0.00,,,0.00,0,WeatherTracker,2013-01-08 01:17:00,
2013-01-07 20:22:00,31.8,24.8,30.26,South,190,0.0,0.0,75,0.00,,,0.00,0,WeatherTracker,2013-01-08 01:22:00,
2013-01-07 20:27:00,31.7,24.4,30.26,South,190,0.0,0.0,74,0.00,,,0.00,0,WeatherTracker,2013-01-08 01:27:00,
2013-01-07 20:32:00,31.7,24.7,30.25,South,190,0.0,0.0,75,0.00,,,0.00,0,WeatherTracker,2013-01-08 01:32:00,
2013-01-07 20:37:00,31.8,25.1,30.26,South,190,0.0,0.0,76,0.00,,,0.00,0,WeatherTracker,2013-01-08 01:37:00,
2013-01-07 20:42:00,31.9,25.2,30.26,South,190,0.0,0.0,76,0.00,,,0.00,0,WeatherTracker,2013-01-08 01:42:00,
2013-01-07 20:47:00,32.3,25.0,30.26,South,190,0.0,0.0,74,0.00,,,0.00,0,WeatherTracker,2013-01-08 01:47:00,
2013-01-07 20:52:00,32.6,25.6,30.26,South,190,0.0,0.0,75,0.00,,,0.00,0,WeatherTracker,2013-01-08 01:52:00,
2013-01-07 20:57:00,32.8,25.4,30.27,South,190,0.0,0.0,74,0.00,,,0.00,0,WeatherTracker,2013-01-08 01:57:00,
2013-01-07 21:02:00,33.0,25.3,30.27,South,190,0.0,0.0,73,0.00,,,0.00,0,WeatherTracker,2013-01-08 02:02:00,
2013-01-07 21:07:00,33.1,25.1,30.27,South,190,0.0,0.0,72,0.00,,,0.00,0,WeatherTracker,2013-01-08 02:07:00,
2013-01-07 21:12:00,33.2,25.5,30.27,South,190,0.0,0.0,73,0.00,,,0.00,0,WeatherTracker,2013-01-08 02:12:00,
2013-01-07 21:18:00,33.2,25.5,30.27,South,190,0.0,0.0,73,0.00,,,0.00,0,WeatherTracker,2013-01-08 02:18:00,
2013-01-07 21:22:00,33.2,25.8,30.27,South,190,0.0,0.0,74,0.00,,,0.00,0,WeatherTracker,2013-01-08 02:22:00,
2013-01-07 21:28:00,32.9,25.5,30.27,South,190,0.0,0.0,74,0.00,,,0.00,0,WeatherTracker,2013-01-08 02:28:00,
2013-01-07 21:33:00,32.5,25.5,30.27,South,190,0.0,0.0,75,0.00,,,0.00,0,WeatherTracker,2013-01-08 02:33:00,
2013-01-07 21:38:00,32.2,25.2,30.27,South,190,0.0,0.0,75,0.00,,,0.00,0,WeatherTracker,2013-01-08 02:38:00,
2013-01-07 21:43:00,31.9,25.2,30.27,South,190,0.0,0.0,76,0.00,,,0.00,0,WeatherTracker,2013-01-08 02:43:00,
2013-01-07 21:48:00,31.6,25.2,30.27,South,190,0.0,0.0,77,0.00,,,0.00,0,WeatherTracker,2013-01-08 02:48:00,
2013-01-07 21:53:00,31.6,25.2,30.27,South,190,0.0,0.0,77,0.00,,,0.00,0,WeatherTracker,2013-01-08 02:53:00,
2013-01-07 21:58:00,32.1,25.7,30.27,South,190,0.0,0.0,77,0.00,,,0.00,0,WeatherTracker,2013-01-08 02:58:00,
2013-01-07 22:03:00,32.6,25.6,30.27,South,190,0.0,0.0,75,0.00,,,0.00,0,WeatherTracker,2013-01-08 03:03:00,
2013-01-07 22:08:00,32.9,25.9,30.27,South,190,0.0,0.0,75,0.00,,,0.00,0,WeatherTracker,2013-01-08 03:08:00,
2013-01-07 22:13:00,32.8,25.8,30.28,South,190,0.0,0.0,75,0.00,,,0.00,0,WeatherTracker,2013-01-08 03:13:00,
2013-01-07 22:18:00,32.5,25.5,30.28,South,190,1.0,0.0,75,0.00,,,0.00,0,WeatherTracker,2013-01-08 03:18:00,
2013-01-07 22:23:00,32.3,25.6,30.28,South,190,0.0,0.0,76,0.00,,,0.00,0,WeatherTracker,2013-01-08 03:23:00,
2013-01-07 22:28:00,32.0,25.6,30.27,South,190,0.0,0.0,77,0.00,,,0.00,0,WeatherTracker,2013-01-08 03:28:00,
2013-01-07 22:33:00,31.8,25.4,30.28,South,190,0.0,0.0,77,0.00,,,0.00,0,WeatherTracker,2013-01-08 03:33:00,
2013-01-07 22:38:00,31.6,25.2,30.27,South,190,0.0,0.0,77,0.00,,,0.00,0,WeatherTracker,2013-01-08 03:38:00,
2013-01-07 22:44:00,31.5,25.4,30.28,South,190,0.0,0.0,78,0.00,,,0.00,0,WeatherTracker,2013-01-08 03:44:00,
2013-01-07 22:49:00,31.5,25.8,30.28,South,190,0.0,0.0,79,0.00,,,0.00,0,WeatherTracker,2013-01-08 03:49:00,
2013-01-07 22:54:00,31.7,25.6,30.28,South,190,0.0,0.0,78,0.00,,,0.00,0,WeatherTracker,2013-01-08 03:54:00,
2013-01-07 22:59:00,31.7,25.6,30.27,South,190,0.0,0.0,78,0.00,,,0.00,0,WeatherTracker,2013-01-08 03:59:00,
2013-01-07 23:04:00,31.4,25.7,30.27,South,190,0.0,0.0,79,0.00,,,0.00,0,WeatherTracker,2013-01-08 04:04:00,
2013-01-07 23:09:00,31.0,25.3,30.27,South,190,0.0,0.0,79,0.00,,,0.00,0,WeatherTracker,2013-01-08 04:09:00,
2013-01-07 23:14:00,30.8,25.4,30.28,South,190,0.0,0.0,80,0.00,,,0.00,0,WeatherTracker,2013-01-08 04:14:00,
2013-01-07 23:19:00,30.7,25.3,30.27,South,190,0.0,0.0,80,0.00,,,0.00,0,WeatherTracker,2013-01-08 04:19:00,
2013-01-07 23:24:00,30.6,25.5,30.28,South,190,0.0,0.0,81,0.00,,,0.00,0,WeatherTracker,2013-01-08 04:24:00,
2013-01-07 23:29:00,30.5,25.4,30.28,South,190,0.0,0.0,81,0.00,,,0.00,0,WeatherTracker,2013-01-08 04:29:00,
2013-01-07 23:34:00,30.5,25.4,30.27,South,190,0.0,0.0,81,0.00,,,0.00,0,WeatherTracker,2013-01-08 04:34:00,
2013-01-07 23:39:00,30.5,25.7,30.28,South,190,0.0,0.0,82,0.00,,,0.00,0,WeatherTracker,2013-01-08 04:39:00,
2013-01-07 23:44:00,30.5,25.7,30.27,South,190,0.0,0.0,82,0.00,,,0.00,0,WeatherTracker,2013-01-08 04:44:00,
2013-01-07 23:49:00,30.5,25.4,30.28,South,190,0.0,0.0,81,0.00,,,0.00,0,WeatherTracker,2013-01-08 04:49:00,
2013-01-07 23:54:00,30.5,25.4,30.28,South,190,0.0,0.0,81,0.00,,,0.00,0,WeatherTracker,2013-01-08 04:54:00,
2013-01-07 23:59:00,30.5,25.4,30.28,South,190,0.0,0.0,81,0.00,,,0.00,0,WeatherTracker,2013-01-08 04:59:00,